Вернуться в каталог

SJ-30A

АктивенНаукаVLEO
NORAD 66545·PAYLOAD·🇨🇳 China

Запущен Nov 19, 2025 с Jiuquan Satellite Launch Center

Loading…

Ближайшие Пролёты (ближайшие 24 часа)

TLE

СвежийSource: Space-Track

Эпоха: Sep 14, 2026, 18:52 UTC

1 66545U 25266A   26257.78674448  .00004634  00000-0  25686-3 0  9994
2 66545  51.7975 119.6508 0006722 187.3220 172.7659 15.15599595 45440

Отслеживайте SJ-30A в реальном времени с AllMySat

Download on the App Store